Lapse_Rate
4.5 5.9 7.0 7.5 6.5 6.5 6.5 6.5 6.5 6.5 6.5 6.6 7.0 6.5 6.5 6.7 6.5 6.5 8.0 8.9 9.5 9.2 9.1 7.4 6.9 7.0 8.1 9.5 9.5 9.5 9.6 9.0 8.8 8.9 9.2 8.7 8.8 9.4 9.4 9.5 9.4 9.6 9.1 8.5 9.4 9.4 9.4 9.4 8.7
8.0 9.4 7.1 6.0 6.5 6.5 6.5 6.5 6.5 6.5 6.6 6.8 6.9 6.8 6.6 6.5 7.7 7.4 7.2 9.4 9.5 9.3 8.3 6.0 6.3 6.7 7.2 8.9 9.5 9.5 8.9 8.9 8.9 8.8 9.0 9.1 9.3 9.3 9.3 9.3 9.4 9.4 9.5 9.5 9.4 9.4 9.4 9.4 8.6
7.7 8.8 6.2 6.5 6.5 6.5 6.5 6.5 6.5 6.6 7.1 7.1 6.8 6.4 6.8 6.9 7.8 7.8 8.1 9.5 9.4 9.1 8.0 5.2 6.0 6.1 6.4 8.3 9.4 9.5 9.5 8.9 9.0 9.2 9.4 9.4 7.5 6.7 7.9 9.3 9.3 9.3 9.4 9.4 9.3 9.3 9.4 9.4 9.5
7.5 5.5 5.9 6.5 6.5 6.5 6.5 6.5 6.4 6.6 7.0 7.3 6.4 6.5 7.1 7.7 8.0 7.9 9.2 9.6 9.0 8.9 8.9 5.2 5.6 5.5 5.8 7.2 9.0 9.4 9.2 9.4 9.3 8.6 9.0 6.9 5.8 5.1 5.1 6.0 6.5 8.7 9.3 9.3 9.3 9.3 9.3 9.3 9.3
6.6 6.2 6.5 6.5 6.5 6.5 6.5 6.6 6.7 6.5 6.6 6.8 7.0 6.5 7.0 8.1 8.2 8.4 8.6 9.3 8.6 8.4 9.2 7.2 5.7 5.4 5.4 5.6 5.7 7.1 7.3 6.4 5.8 5.7 5.9 5.6 4.9 4.8 5.0 4.9 5.4 6.7 8.5 8.6 9.2 8.9 9.0 9.2 8.9
5.9 5.9 6.5 6.5 6.5 6.5 6.3 6.9 6.8 6.5 6.5 6.9 6.7 6.5 6.7 8.0 8.1 8.5 8.8 7.9 9.4 9.0 9.5 9.2 9.0 6.0 5.1 5.4 5.2 5.2 5.2 5.1 5.1 5.0 4.9 5.0 5.2 6.1 7.1 6.2 5.9 6.0 7.3 8.3 9.2 9.0 9.2 9.0 9.0
6.4 6.5 6.5 6.5 6.5 6.5 6.5 7.3 6.6 6.3 6.4 6.8 7.3 6.4 6.7 7.5 8.2 8.5 8.3 9.1 9.2 9.5 9.3 9.2 9.3 9.2 9.3 7.3 5.4 5.1 4.9 4.7 4.8 5.0 5.1 5.8 9.0 9.6 9.6 9.6 7.7 8.9 9.3 9.3 9.3 9.3 9.3 9.3 9.1
6.0 6.1 6.5 6.5 6.5 6.5 6.6 7.0 7.0 6.4 6.7 7.9 7.3 6.4 6.1 6.4 8.3 8.5 8.9 8.0 8.4 8.7 9.1 9.0 9.1 8.5 7.9 8.8 6.4 6.2 5.9 5.6 5.8 6.3 6.8 7.9 9.0 9.5 8.7 9.5 9.6 9.6 9.6 9.5 9.5 9.5 9.5 9.5 9.5
7.9 6.5 6.5 6.5 6.5 6.5 6.6 6.5 7.4 7.7 7.0 7.2 7.4 5.8 6.2 6.8 7.7 7.8 7.8 7.4 7.4 8.3 8.5 9.0 8.3 7.9 7.6 9.4 7.8 7.7 8.1 8.9 8.8 7.9 7.3 6.6 7.6 8.4 9.2 9.5 9.6 9.7 9.6 9.6 9.6 9.6 9.6 9.7 9.5
6.3 6.5 6.5 6.5 6.4 6.5 6.6 6.7 6.8 6.7 6.5 6.7 7.0 7.2 6.8 6.5 6.4 7.2 7.5 6.9 7.2 7.8 8.0 8.1 7.5 7.7 8.0 9.0 8.0 8.7 8.6 7.9 8.5 8.0 6.7 6.4 7.5 8.5 9.3 8.8 9.6 9.6 9.6 9.6 9.6 9.6 9.6 9.4 9.1
6.5 6.5 6.5 6.7 6.8 6.9 6.6 6.5 7.3 6.3 6.5 6.2 6.2 6.9 7.3 7.5 7.9 7.6 7.4 6.8 7.1 7.8 7.1 7.7 7.3 8.1 8.3 8.5 8.9 9.1 9.1 8.4 8.9 8.1 7.0 6.7 7.2 7.8 8.8 9.0 9.1 9.2 9.5 8.6 7.4 6.8 8.1 9.1 8.9
6.5 6.7 6.8 7.0 7.0 7.0 6.6 6.8 6.7 6.5 6.7 6.8 6.4 6.9 7.2 7.0 7.0 7.4 7.5 7.6 8.3 6.8 7.6 7.6 7.4 7.7 8.5 9.1 8.4 8.8 8.9 8.8 8.4 8.9 8.1 7.8 7.5 7.9 8.2 8.6 8.9 8.1 7.1 7.0 6.4 6.1 7.7 8.0 7.3
6.5 6.6 7.0 7.2 7.2 6.6 7.2 6.7 6.6 6.4 7.6 6.5 7.4 7.4 6.8 6.7 7.0 7.5 7.7 7.8 8.9 7.4 8.0 7.4 8.6 7.2 7.5 8.3 7.7 7.9 8.4 7.7 8.5 8.2 8.2 8.5 7.4 6.9 8.2 8.8 8.7 7.4 6.6 5.7 5.4 5.6 6.5 6.6 6.7
6.7 6.7 6.7 7.0 7.0 7.1 6.7 6.6 6.9 6.4 7.1 6.8 7.2 6.8 6.7 6.7 7.5 7.0 8.0 7.7 8.2 7.5 7.5 7.9 7.9 7.4 7.3 7.2 7.3 7.5 7.6 7.5 8.4 8.6 8.9 8.2 7.9 8.0 8.5 8.4 8.4 7.6 7.1 8.0 7.9 8.4 8.3 7.7 6.7
6.7 6.5 6.5 6.5 6.7 6.6 6.9 6.5 6.5 6.0 6.7 6.6 6.6 6.1 6.6 7.0 7.6 7.9 7.5 7.8 8.4 6.7 8.2 7.0 7.3 8.3 7.7 7.7 7.8 8.1 7.6 8.0 8.1 8.5 8.9 8.0 8.3 7.7 8.0 8.3 7.8 8.0 8.3 8.6 8.8 8.7 8.9 9.1 8.9
6.5 6.5 6.5 6.5 6.4 6.3 6.6 6.5 6.2 6.3 6.0 5.8 6.0 5.6 6.1 6.9 7.3 7.1 7.7 8.4 8.2 8.7 7.1 7.9 8.6 9.0 7.9 7.8 7.9 8.1 8.0 8.3 8.5 8.6 7.9 7.8 8.1 8.0 8.1 8.1 8.1 8.0 8.1 8.8 8.3 8.4 8.3 7.9 8.6
6.5 6.5 6.5 6.5 6.3 6.5 6.5 6.5 6.0 6.2 6.2 5.6 5.2 5.3 5.7 6.1 6.8 6.7 7.3 8.2 7.8 7.5 7.7 7.7 8.1 7.9 7.3 7.8 8.5 8.7 8.8 8.0 8.5 7.8 7.2 7.1 6.8 7.3 7.5 8.2 8.6 8.2 7.9 7.9 8.2 8.2 8.0 7.8 6.8
6.5 6.5 6.5 6.5 6.5 6.5 6.5 6.5 6.3 5.8 5.9 5.2 5.1 5.1 5.0 5.8 6.0 6.7 7.0 7.6 7.4 6.9 7.0 7.2 7.6 7.6 7.1 7.7 8.3 8.2 8.1 8.3 8.4 7.2 7.3 7.1 6.8 7.1 7.5 8.1 8.4 8.7 7.2 6.4 6.3 6.6 7.0 6.8 6.7
6.5 6.5 6.5 6.5 6.5 6.5 6.5 6.5 6.5 5.8 5.3 4.8 4.4 4.6 4.7 5.3 5.8 5.7 6.3 6.6 6.8 6.2 5.8 6.4 6.3 5.7 5.2 5.0 5.2 5.0 5.4 6.1 6.1 6.9 7.4 7.0 6.6 7.0 7.5 7.4 7.8 8.4 6.6 6.6 6.7 7.7 6.5 6.6 6.9
6.5 6.5 6.5 6.5 6.5 6.5 6.5 6.5 6.5 5.9 5.9 5.0 4.9 4.5 4.7 5.1 5.2 4.7 5.7 6.3 6.5 6.6 6.2 5.6 6.1 5.7 5.0 4.4 4.2 4.4 4.6 5.1 6.2 7.5 7.2 6.9 7.0 7.5 7.6 7.1 6.9 7.7 6.3 6.6 6.3 6.3 6.1 6.5 7.0
6.5 6.5 6.5 6.5 6.5 6.5 6.5 6.5 6.5 6.3 5.5 5.4 5.4 5.4 5.0 4.6 5.0 4.7 5.4 5.6 6.1 6.2 5.7 5.9 5.8 5.4 5.5 4.5 4.6 5.3 6.2 6.2 6.0 5.1 5.2 6.9 7.8 7.8 7.5 7.5 7.4 7.5 7.1 6.3 6.6 6.5 6.6 7.2 6.1
6.5 6.5 6.5 6.5 6.5 6.5 6.5 6.5 6.5 6.5 6.5 5.7 4.4 4.3 4.4 4.5 5.1 5.0 5.1 5.5 5.7 6.0 5.9 5.5 5.6 5.4 5.8 5.3 4.4 5.5 5.1 5.3 5.0 5.1 5.6 6.6 7.8 7.5 7.6 7.6 7.6 7.8 7.9 6.6 6.6 8.4 7.4 7.0 5.9
6.5 6.5 6.5 6.5 6.5 6.5 6.5 6.5 6.5 6.5 6.5 6.5 4.5 4.2 4.3 4.4 4.5 5.1 4.5 5.2 6.2 5.8 4.4 4.4 4.8 4.7 4.8 4.8 4.2 3.9 4.6 4.6 5.1 5.7 5.6 5.7 7.2 8.1 8.2 7.9 7.6 7.9 8.9 8.8 7.8 6.6 6.5 6.5 7.1
6.5 6.5 6.5 6.5 6.5 6.5 6.5 6.5 6.5 6.5 6.5 6.5 5.2 4.4 4.5 4.7 4.4 5.0 4.9 5.3 5.5 5.0 4.6 4.3 4.4 4.3 4.2 3.9 3.8 3.8 4.0 3.7 3.7 4.3 4.4 5.0 5.2 6.9 8.1 7.8 7.5 8.0 8.3 8.4 8.5 7.7 6.8 6.5 6.4
6.5 6.5 6.5 6.5 6.5 6.5 6.5 6.5 6.5 6.5 6.5 6.4 5.7 4.1 4.0 4.4 4.2 4.4 4.3 4.5 5.1 4.5 3.7 3.6 4.0 4.0 4.1 3.7 3.8 3.7 3.5 3.7 3.7 3.9 4.5 4.9 4.7 5.4 5.9 6.8 6.3 6.4 7.9 7.9 8.3 7.1 6.6 6.9 6.4
6.5 6.5 6.5 6.5 6.5 6.5 6.5 6.5 6.5 6.5 4.8 4.6 5.1 4.0 4.1 4.2 4.3 3.9 4.1 3.9 4.1 4.4 3.5 3.5 3.3 3.7 4.6 4.5 4.2 3.8 4.0 2.9 3.1 4.4 4.9 4.2 4.2 4.8 6.7 6.3 6.6 7.0 7.7 8.0 7.8 7.9 6.9 6.9 6.3
6.5 6.5 6.5 6.5 6.5 6.5 6.5 6.5 6.5 6.5 6.5 5.7 5.8 5.9 3.7 3.9 4.0 4.0 4.3 4.1 3.9 3.8 3.5 3.2 3.7 4.3 4.6 4.4 3.9 3.7 3.5 3.5 3.6 4.4 4.4 3.8 4.4 5.8 6.0 6.2 6.2 7.0 7.3 7.6 7.7 6.8 6.1 6.7 6.5
6.5 6.5 6.5 6.5 6.5 6.5 6.5 6.5 6.5 6.5 6.5 6.5 5.8 4.2 4.0 3.9 4.1 4.0 4.1 4.4 4.7 4.9 4.2 4.0 3.9 3.9 4.3 4.0 3.4 3.7 3.3 3.9 4.2 3.9 3.7 3.9 4.2 5.3 4.9 5.0 6.1 6.0 6.9 7.3 7.3 7.1 6.4 7.1 6.3
6.5 6.5 6.5 6.5 6.5 6.5 6.5 6.5 6.5 6.5 6.5 6.5 5.1 4.2 3.5 3.8 3.6 3.8 4.0 4.2 4.3 5.1 4.6 4.0 3.9 4.1 3.8 3.3 3.0 3.0 3.1 3.6 3.7 3.6 3.7 3.7 4.2 4.7 4.3 4.7 5.4 5.5 6.0 6.2 6.4 7.9 8.4 6.9 6.7
6.5 6.5 6.5 6.5 6.5 6.5 6.5 6.5 6.5 6.5 6.1 5.0 4.0 3.7 3.2 3.6 3.6 3.8 3.9 4.1 4.1 4.2 4.7 3.9 3.3 2.9 2.9 3.0 2.8 2.8 2.8 3.0 3.0 3.0 3.4 4.4 4.0 4.5 4.4 4.7 5.2 5.3 5.3 5.2 5.7 7.9 8.0 6.7 7.0
Wind_Speed
5 10 8 1 3 4 2 6 9 5 5 10 11 11 15 12 6 5 4 6 9 10 15 19 15 15 15 14 13 13 13 16 15 13 14 16 15 17 15 15 16 16 15 17 18 17 16 16 18
8 7 2 4 3 4 2 9 14 11 10 8 9 10 10 6 8 9 6 4 10 12 16 15 13 13 14 13 13 13 14 14 15 14 15 16 17 16 17 16 16 15 18 18 18 19 18 16 17
7 4 2 2 4 5 3 13 11 9 5 6 5 10 6 5 8 5 7 6 11 12 15 13 13 13 13 13 13 13 13 12 13 14 14 15 16 17 16 17 17 17 18 18 19 19 19 18 17
3 1 3 2 8 6 9 11 10 9 6 6 12 9 6 8 4 7 6 8 10 12 12 11 12 12 12 12 11 12 12 14 13 14 14 14 15 16 16 17 16 16 17 18 19 18 19 19 19
3 4 3 6 5 7 10 10 6 8 6 8 3 5 6 7 9 8 7 9 7 11 8 9 10 11 11 13 13 13 13 13 13 13 14 14 13 14 15 16 16 18 18 18 18 19 19 19 20
3 3 5 2 8 8 8 5 6 10 10 6 13 9 5 8 8 6 6 7 10 9 7 8 8 7 8 11 13 12 12 13 13 13 14 14 12 12 14 14 16 19 19 19 18 18 19 19 20
4 4 7 7 8 5 7 3 2 7 8 5 5 5 7 7 6 6 7 8 10 8 8 9 8 9 7 7 11 11 13 13 13 13 14 14 12 12 15 14 15 17 17 18 18 17 19 19 20
3 2 6 3 2 5 4 4 7 10 5 3 6 4 7 10 7 6 5 7 7 8 7 8 8 9 9 7 8 9 10 11 12 14 16 16 15 15 16 15 14 16 16 17 17 18 17 18 17
3 3 4 7 7 6 8 5 4 4 9 9 7 11 12 11 7 7 5 6 6 5 7 9 9 9 8 6 10 9 10 11 12 13 16 17 17 15 13 16 17 18 17 18 17 18 18 18 18
2 4 5 7 7 6 6 4 7 6 8 7 9 10 10 9 8 6 5 5 7 5 5 8 7 7 7 9 8 6 8 12 11 13 14 15 15 16 16 17 18 18 19 19 20 20 18 18 17
5 4 4 7 5 6 5 8 4 4 6 11 12 9 9 6 5 6 6 7 7 6 5 6 6 6 7 7 7 7 7 10 10 12 13 16 15 16 15 15 14 15 19 16 17 18 16 16 16
2 5 6 3 4 4 4 7 4 4 3 8 13 11 8 7 7 6 6 6 5 8 6 5 3 7 9 9 11 12 10 11 11 10 12 12 14 15 15 14 14 16 18 18 17 15 18 17 19
6 5 6 5 1 7 3 2 2 6 3 11 12 10 9 7 7 6 6 6 2 6 6 5 4 7 8 9 10 10 9 10 9 10 11 13 14 12 14 14 13 16 18 16 14 14 14 15 15
5 6 7 5 5 2 2 3 2 7 7 9 9 9 8 9 6 6 5 6 5 7 7 5 6 7 5 5 7 5 8 8 9 9 10 14 13 14 13 11 10 12 13 15 14 13 12 11 13
8 6 4 5 6 3 4 5 7 11 9 9 9 8 8 7 6 3 6 5 5 6 5 6 2 1 3 4 4 4 7 6 7 7 11 14 12 13 14 11 6 8 11 11 11 12 11 11 12
5 6 4 6 7 5 2 0 7 10 9 10 10 9 8 8 7 7 6 4 6 1 6 5 2 2 4 4 3 3 4 4 6 9 11 12 11 13 15 11 9 10 12 11 9 6 6 6 6
6 4 5 6 8 5 5 3 8 10 9 9 9 9 9 8 8 7 7 5 6 3 3 4 1 3 4 3 3 2 2 3 5 9 8 11 11 13 14 12 13 6 5 7 9 7 7 6 6
6 5 3 5 7 4 7 10 9 11 10 9 9 9 10 9 10 8 8 7 6 4 2 2 3 2 2 2 1 3 3 4 5 5 5 8 9 10 12 11 14 12 3 2 3 6 8 6 6
7 7 8 6 5 3 10 10 7 13 9 10 9 9 9 10 9 9 8 8 7 6 6 4 3 2 2 2 3 3 2 2 4 3 5 7 8 9 11 10 11 12 4 4 4 4 6 7 6
7 8 3 3 5 3 8 9 9 14 13 10 9 9 10 9 9 10 9 8 8 7 7 5 5 4 2 1 1 1 1 1 4 1 4 7 7 8 8 10 8 10 4 5 3 4 3 3 6
6 2 6 5 3 9 6 7 7 8 9 10 9 7 9 11 11 11 10 9 8 7 8 7 5 3 3 4 1 1 2 3 1 3 2 5 5 6 7 10 10 10 9 4 3 2 3 4 3
4 5 4 6 6 2 6 4 5 9 7 10 10 10 9 10 9 9 10 9 8 7 6 5 5 4 3 4 1 1 2 2 1 2 1 5 4 4 7 7 9 9 9 6 5 7 3 3 4
2 2 3 5 6 8 6 1 2 10 8 11 11 11 10 10 10 9 10 10 8 9 8 7 6 5 4 2 2 1 2 2 2 1 3 4 4 4 6 5 9 7 8 9 6 7 6 3 3
2 4 7 4 3 3 5 4 4 6 8 8 11 10 11 10 10 10 9 9 8 8 7 6 7 6 6 5 4 4 3 4 3 3 3 3 3 4 4 6 8 8 8 6 6 9 6 5 4
4 3 0 2 1 2 5 2 9 7 6 6 9 10 10 10 10 10 10 9 8 9 8 7 7 7 7 7 6 6 6 4 4 5 3 3 3 3 3 5 5 7 7 9 9 6 6 5 4
3 3 1 2 4 3 2 5 3 5 9 7 6 9 10 9 8 9 10 9 9 9 9 9 8 7 6 6 6 5 4 3 4 4 2 2 3 3 6 6 9 10 12 10 8 6 5 5 4
2 2 2 2 3 2 5 4 0 4 4 6 5 3 9 10 9 9 9 9 9 9 9 9 8 7 7 7 5 5 5 6 5 4 3 3 4 4 6 9 8 9 10 11 3 4 6 6 4
2 3 1 2 1 4 5 4 3 6 9 9 9 10 9 9 10 9 9 9 8 7 8 8 8 8 7 7 6 5 6 5 4 4 5 5 5 5 7 7 7 7 9 10 3 3 6 6 4
2 2 3 1 2 3 3 5 2 6 9 10 10 10 11 10 10 9 9 9 9 8 8 8 8 8 7 7 6 7 5 5 5 4 5 6 5 5 5 6 4 6 6 7 5 4 7 7 5
1 4 2 3 2 3 3 6 2 5 4 7 10 10 10 9 10 9 9 9 9 9 8 8 8 8 8 7 7 7 7 6 5 6 6 4 4 6 6 5 4 5 5 6 6 5 5 7 5
Wind_Direction
219 231 232 293 252 219 52 236 98 108 78 54 53 73 96 43 16 101 183 81 53 45 43 39 19 16 18 17 23 23 27 27 22 21 15 9 10 11 1 7 360 4 3 2 4 357 357 352 357
268 261 320 273 254 302 340 73 66 68 92 110 44 94 41 78 77 116 114 80 72 46 56 34 19 19 18 14 21 18 27 25 23 15 11 6 12 4 12 3 3 1 359 359 357 355 353 352 355
270 324 260 249 270 41 36 78 93 91 59 76 112 39 58 86 51 82 107 83 66 61 67 37 22 21 21 18 22 20 22 23 24 15 8 11 8 2 6 5 2 0 355 355 354 351 347 347 347
233 12 267 259 275 44 55 92 109 109 92 62 115 84 87 4 74 99 88 68 82 53 68 57 25 22 22 25 25 28 24 19 17 18 12 10 5 2 3 4 2 356 356 356 350 347 347 346 341
246 256 252 225 105 77 62 100 142 75 85 51 14 80 85 77 101 112 95 67 56 75 49 80 37 28 27 28 22 20 20 16 12 12 10 8 6 6 6 2 360 358 356 354 352 350 344 344 340
285 226 272 327 90 86 82 70 68 79 88 105 105 115 92 137 114 104 72 86 66 68 53 49 48 38 34 26 20 16 13 11 12 11 10 8 8 8 8 4 1 354 351 350 349 348 344 341 340
288 300 280 340 111 121 99 55 63 107 112 46 339 82 132 142 124 100 96 81 83 65 63 50 47 29 27 36 23 12 10 12 11 10 7 1 356 4 5 1 358 351 348 346 345 343 341 337 336
303 287 277 100 51 88 100 65 23 18 69 104 343 147 165 126 136 108 115 122 99 79 52 50 40 39 17 11 34 7 10 9 8 6 4 357 3 355 353 354 349 348 348 345 342 339 340 337 333
273 270 338 28 26 103 118 126 42 107 101 46 35 68 102 121 146 171 186 127 111 92 77 55 30 25 4 3 18 15 0 9 4 6 1 359 347 359 347 353 348 353 348 350 346 345 344 346 348
289 328 47 11 23 116 165 121 128 159 125 102 93 92 109 154 194 146 113 69 80 72 56 62 32 11 16 10 351 22 5 20 356 17 9 354 347 352 358 353 354 352 347 351 353 350 353 349 334
18 17 99 40 356 92 94 95 134 132 206 152 149 137 165 160 135 128 116 122 125 111 70 61 21 14 23 346 14 14 10 10 16 11 20 351 354 352 354 350 354 348 359 8 6 352 342 340 343
160 45 34 112 11 90 151 102 155 359 53 103 129 150 160 179 121 92 81 83 73 105 102 92 66 13 15 358 27 11 15 23 7 15 21 357 358 351 355 346 359 21 6 3 3 350 335 357 347
95 106 83 96 101 64 110 126 71 101 115 101 128 148 177 128 110 104 108 103 186 87 100 107 99 47 16 13 33 5 20 8 3 19 9 18 3 354 347 342 16 39 14 1 352 340 337 336 342
101 118 122 149 121 110 209 151 278 136 142 123 141 167 175 139 159 133 188 140 118 111 89 63 46 69 17 12 35 8 44 346 11 14 6 26 6 357 345 345 12 40 11 351 343 331 330 337 329
137 132 165 175 169 134 287 195 225 138 149 151 177 181 177 151 131 183 95 105 45 95 118 96 92 121 57 35 31 17 56 356 9 15 20 21 9 1 346 337 7 33 8 335 323 319 320 331 327
226 233 210 144 151 128 224 61 155 150 168 172 196 181 167 176 192 141 117 120 112 103 98 125 110 78 50 41 357 59 40 12 24 22 32 8 12 360 349 340 347 39 8 326 310 317 314 304 318
209 258 173 161 190 123 205 321 143 158 190 185 195 190 172 190 194 147 144 140 115 79 89 93 95 60 40 357 291 90 128 66 44 36 26 8 10 6 349 340 339 30 347 338 340 330 325 328 326
340 322 357 130 179 212 217 250 176 177 191 207 198 200 177 193 186 171 152 145 133 136 120 145 135 101 357 287 16 355 89 90 72 46 18 20 6 4 343 349 337 346 317 342 353 344 330 327 318
314 309 294 104 123 252 238 247 216 179 194 211 208 197 193 186 184 142 143 152 166 167 181 176 124 73 52 2 35 4 16 17 25 20 359 17 3 1 342 351 338 341 338 324 10 335 326 328 328
308 295 321 106 135 204 276 270 218 173 193 200 213 201 196 180 167 150 158 173 181 187 171 160 180 173 130 87 82 107 292 314 247 50 4 10 357 349 356 343 330 333 332 337 12 348 329 322 341
294 275 2 342 287 213 280 269 219 194 163 185 214 211 194 181 182 166 170 175 176 185 173 186 159 146 173 128 293 263 281 244 29 355 349 334 345 342 349 341 344 349 342 322 316 288 321 311 315
300 25 355 315 317 294 167 293 199 184 196 190 202 210 206 192 178 167 162 168 177 186 140 146 169 181 145 125 290 23 257 255 234 240 270 302 322 329 327 354 351 341 325 338 327 329 275 266 286
34 350 304 310 289 294 184 219 345 123 219 217 206 202 205 193 172 176 161 164 177 163 155 185 174 170 163 184 160 330 312 326 305 308 324 297 311 305 305 356 331 335 342 335 326 315 318 313 317
3 253 215 249 238 265 173 172 225 193 214 208 188 192 189 190 168 170 163 160 167 148 154 170 172 190 175 176 196 208 260 283 314 306 302 304 300 296 313 349 325 319 310 307 311 309 313 316 322
244 252 312 283 218 250 53 317 250 176 91 140 163 178 176 176 169 170 166 160 160 163 172 182 195 200 184 182 201 207 220 239 263 268 281 314 301 311 304 327 309 305 305 311 303 311 305 304 316
300 336 147 236 337 317 105 241 245 114 92 54 100 158 159 173 176 175 173 168 171 174 176 192 189 197 195 185 200 204 210 221 245 256 255 286 279 287 297 301 308 302 311 301 319 315 318 305 324
131 216 2 300 252 332 226 229 151 101 125 147 162 159 179 177 178 177 175 174 175 180 181 185 191 192 192 190 191 204 217 228 232 260 255 256 270 276 299 298 290 300 302 298 319 315 306 307 316
264 332 253 283 319 281 299 232 239 215 214 192 202 197 212 188 181 178 178 181 185 183 180 182 184 189 192 190 189 207 218 227 227 236 244 254 264 270 289 286 292 298 298 297 275 296 293 298 322
164 235 226 324 173 218 307 280 325 244 197 200 205 202 194 196 187 183 178 177 180 180 176 182 183 188 194 186 192 210 213 229 226 236 246 247 251 273 274 281 288 293 299 307 312 303 329 318 322
341 317 238 129 244 243 163 274 303 40 129 179 196 193 187 189 185 182 180 175 175 183 185 185 184 187 196 193 193 204 208 215 225 238 244 249 265 275 276 285 291 298 310 309 302 293 314 300 313